• In Uzbekistan
  • List of Countries
  • For 7 days
  • Water Temperature
  • Satellite Maps
  • Weather Map
  • Weather Widgets
  • user-avatar
    Login

    Hourly Weather Caieiras

    Today, 18 October, Wednesday

    Time Temperature Precipitation Wind Pressure Humidity
    00:00 +20°C° 0 mm 2 mps 699 mmHg 81%
    01:00 +20°C° 0 mm 2 mps 698 mmHg 81%
    02:00 +20°C° 0 mm 2 mps 698 mmHg 80%
    03:00 +19°C° 0 mm 2 mps 698 mmHg 79%
    04:00 +19°C° 0 mm 2 mps 698 mmHg 79%
    05:00 +19°C° 0 mm 2 mps 698 mmHg 79%
    06:00 +19°C° 0 mm 2 mps 698 mmHg 79%
    07:00 +21°C° 0 mm 2 mps 699 mmHg 70%
    08:00 +25°C° 0 mm 2 mps 699 mmHg 61%
    09:00 +27°C° 0 mm 3 mps 700 mmHg 52%
    10:00 +29°C° 0 mm 3 mps 700 mmHg 47%
    11:00 +30°C° 0 mm 2 mps 699 mmHg 41%
    12:00 +32°C° 0 mm 2 mps 699 mmHg 36%
    13:00 +32°C° 0 mm 2 mps 699 mmHg 35%
    14:00 +34°C° 0 mm 2 mps 698 mmHg 34%
    15:00 +34°C° 0 mm 2 mps 698 mmHg 33%
    16:00 +31°C° 0 mm 2 mps 697 mmHg 38%
    17:00 +30°C° 0 mm 2 mps 697 mmHg 43%
    18:00 +28°C° 0 mm 1 mps 696 mmHg 48%
    19:00 +27°C° 0 mm 1 mps 696 mmHg 51%
    20:00 +26°C° 0 mm 1 mps 696 mmHg 53%
    21:00 +25°C° 0 mm 1 mps 697 mmHg 56%
    22:00 +24°C° 0 mm 2 mps 697 mmHg 55%
    23:00 +24°C° 0 mm 2 mps 697 mmHg 54%

    Tomorrow, 19 October, Thursday

    Time Temperature Precipitation Wind Pressure Humidity
    00:00 +24°C° 0 mm 2 mps 696 mmHg 53%
    01:00 +24°C° 0 mm 3 mps 696 mmHg 52%
    02:00 +22°C° 0 mm 3 mps 696 mmHg 52%
    03:00 +22°C° 0 mm 3 mps 695 mmHg 51%
    04:00 +22°C° 0 mm 3 mps 696 mmHg 52%
    05:00 +21°C° 0 mm 3 mps 696 mmHg 53%
    06:00 +21°C° 0 mm 3 mps 696 mmHg 54%
    07:00 +23°C° 0 mm 4 mps 696 mmHg 48%
    08:00 +26°C° 0 mm 4 mps 697 mmHg 43%
    09:00 +29°C° 0 mm 4 mps 697 mmHg 38%
    10:00 +30°C° 0 mm 4 mps 698 mmHg 35%
    11:00 +33°C° 0 mm 4 mps 698 mmHg 32%
    12:00 +34°C° 0 mm 4 mps 698 mmHg 28%
    13:00 +35°C° 0 mm 3 mps 697 mmHg 28%
    14:00 +35°C° 0 mm 3 mps 696 mmHg 27%
    15:00 +35°C° 0 mm 3 mps 696 mmHg 26%
    16:00 +34°C° 0 mm 2 mps 695 mmHg 30%
    17:00 +31°C° 0 mm 2 mps 695 mmHg 34%
    18:00 +30°C° 0 mm 1 mps 695 mmHg 37%
    19:00 +29°C° 0 mm 1 mps 695 mmHg 39%
    20:00 +28°C° 0 mm 1 mps 696 mmHg 41%
    21:00 +27°C° 0 mm 2 mps 696 mmHg 43%
    22:00 +26°C° 0 mm 2 mps 696 mmHg 48%
    23:00 +25°C° 0 mm 1 mps 696 mmHg 53%

    Day after tomorrow, 20 October, Friday

    Time Temperature Precipitation Wind Pressure Humidity
    00:00 +24°C° 0 mm 1 mps 696 mmHg 58%
    01:00 +24°C° 0 mm 1 mps 696 mmHg 60%
    02:00 +24°C° 0 mm 1 mps 695 mmHg 61%
    03:00 +23°C° 0 mm 1 mps 695 mmHg 63%
    04:00 +23°C° 0 mm 1 mps 695 mmHg 63%
    05:00 +23°C° 0 mm 1 mps 695 mmHg 63%
    06:00 +23°C° 0 mm 1 mps 696 mmHg 63%
    07:00 +24°C° 0 mm 2 mps 696 mmHg 59%
    08:00 +26°C° 0 mm 2 mps 697 mmHg 55%
    09:00 +28°C° 0 mm 2 mps 698 mmHg 51%
    10:00 +29°C° 0 mm 2 mps 698 mmHg 47%
    11:00 +31°C° 0 mm 2 mps 698 mmHg 42%
    12:00 +32°C° 0 mm 2 mps 698 mmHg 37%
    13:00 +32°C° 0 mm 2 mps 697 mmHg 38%
    14:00 +31°C° 0 mm 2 mps 696 mmHg 39%
    15:00 +31°C° 0 mm 2 mps 696 mmHg 40%
    16:00 +29°C° 0.2 mm 2 mps 695 mmHg 49%
    17:00 +27°C° 0.2 mm 3 mps 695 mmHg 57%
    18:00 +26°C° 0.2 mm 3 mps 695 mmHg 66%
    19:00 +24°C° 0.1 mm 3 mps 695 mmHg 70%
    20:00 +22°C° 0.1 mm 3 mps 696 mmHg 74%
    21:00 +21°C° 0.1 mm 3 mps 696 mmHg 78%
    22:00 +21°C° 0 mm 3 mps 696 mmHg 78%
    23:00 +21°C° 0 mm 3 mps 696 mmHg 78%

    21 October, Saturday

    Time Temperature Precipitation Wind Pressure Humidity
    00:00 +21°C° 0 mm 2 mps 695 mmHg 77%
    01:00 +21°C° 0 mm 2 mps 695 mmHg 74%
    02:00 +21°C° 0 mm 2 mps 694 mmHg 72%
    03:00 +21°C° 0 mm 2 mps 694 mmHg 69%
    04:00 +21°C° 0 mm 2 mps 694 mmHg 66%
    05:00 +21°C° 0 mm 2 mps 694 mmHg 62%
    06:00 +22°C° 0 mm 3 mps 694 mmHg 59%
    07:00 +25°C° 0 mm 4 mps 695 mmHg 51%
    08:00 +28°C° 0 mm 5 mps 696 mmHg 42%
    09:00 +32°C° 0 mm 6 mps 697 mmHg 33%
    10:00 +33°C° 0 mm 6 mps 696 mmHg 31%
    11:00 +34°C° 0 mm 6 mps 696 mmHg 28%
    12:00 +36°C° 0 mm 6 mps 696 mmHg 26%
    13:00 +35°C° 0 mm 6 mps 695 mmHg 27%
    14:00 +35°C° 0 mm 5 mps 695 mmHg 28%
    15:00 +35°C° 0 mm 5 mps 694 mmHg 28%
    16:00 +33°C° 0 mm 5 mps 695 mmHg 32%
    17:00 +32°C° 0 mm 5 mps 695 mmHg 35%
    18:00 +29°C° 0 mm 5 mps 695 mmHg 39%
    19:00 +28°C° 0.1 mm 4 mps 696 mmHg 46%
    20:00 +26°C° 0.1 mm 4 mps 696 mmHg 53%
    21:00 +25°C° 0.1 mm 3 mps 696 mmHg 60%
    22:00 +25°C° 0.2 mm 3 mps 696 mmHg 62%
    23:00 +24°C° 0.2 mm 3 mps 695 mmHg 65%

    22 October, Sunday

    Time Temperature Precipitation Wind Pressure Humidity
    00:00 +24°C° 0.2 mm 3 mps 695 mmHg 67%
    01:00 +24°C° 0 mm 3 mps 695 mmHg 67%
    02:00 +24°C° 0 mm 3 mps 694 mmHg 67%
    03:00 +22°C° 0 mm 3 mps 694 mmHg 67%
    04:00 +22°C° 0.1 mm 3 mps 694 mmHg 67%
    05:00 +22°C° 0.1 mm 3 mps 694 mmHg 68%
    06:00 +22°C° 0.1 mm 3 mps 695 mmHg 69%
    07:00 +24°C° 0.2 mm 3 mps 695 mmHg 67%
    08:00 +25°C° 0.2 mm 3 mps 696 mmHg 66%
    09:00 +25°C° 0.2 mm 3 mps 696 mmHg 64%
    10:00 +26°C° 0.3 mm 3 mps 696 mmHg 63%
    11:00 +26°C° 0.3 mm 3 mps 696 mmHg 63%
    12:00 +26°C° 0.3 mm 3 mps 695 mmHg 62%
    13:00 +26°C° 0.4 mm 3 mps 695 mmHg 63%
    14:00 +26°C° 0.4 mm 3 mps 694 mmHg 65%
    15:00 +25°C° 0.4 mm 2 mps 694 mmHg 66%
    16:00 +25°C° 0.3 mm 2 mps 694 mmHg 68%
    17:00 +25°C° 0.3 mm 2 mps 694 mmHg 69%
    18:00 +25°C° 0.3 mm 2 mps 695 mmHg 70%
    19:00 +24°C° 0.3 mm 2 mps 695 mmHg 73%
    20:00 +23°C° 0.3 mm 2 mps 695 mmHg 76%
    21:00 +23°C° 0.3 mm 1 mps 695 mmHg 78%
    22:00 +22°C° 0.8 mm 1 mps 695 mmHg 80%
    23:00 +22°C° 0.8 mm 1 mps 695 mmHg 81%

    23 October, Monday

    Time Temperature Precipitation Wind Pressure Humidity
    00:00 +22°C° 0.8 mm 1 mps 695 mmHg 83%
    01:00 +22°C° 0.5 mm 1 mps 695 mmHg 84%
    02:00 +21°C° 0.5 mm 1 mps 694 mmHg 85%
    03:00 +21°C° 0.5 mm 1 mps 694 mmHg 86%
    04:00 +21°C° 0.9 mm 1 mps 695 mmHg 87%
    05:00 +21°C° 0.9 mm 1 mps 695 mmHg 88%
    06:00 +21°C° 0.9 mm 1 mps 695 mmHg 89%
    07:00 +21°C° 0.3 mm 1 mps 696 mmHg 86%
    08:00 +22°C° 0.3 mm 1 mps 697 mmHg 84%
    09:00 +21°C° 0.3 mm 2 mps 697 mmHg 82%
    10:00 +23°C° 1 mm 2 mps 697 mmHg 80%
    11:00 +23°C° 1 mm 2 mps 697 mmHg 78%
    12:00 +24°C° 1 mm 2 mps 697 mmHg 76%
    13:00 +24°C° 0.7 mm 2 mps 696 mmHg 75%
    14:00 +24°C° 0.7 mm 2 mps 696 mmHg 74%
    15:00 +24°C° 0.7 mm 2 mps 696 mmHg 73%
    16:00 +23°C° 1.2 mm 2 mps 696 mmHg 77%
    17:00 +21°C° 1.2 mm 2 mps 696 mmHg 81%
    18:00 +20°C° 1.2 mm 2 mps 696 mmHg 86%
    19:00 +19°C° 1.2 mm 3 mps 696 mmHg 87%
    20:00 +19°C° 1.2 mm 3 mps 696 mmHg 88%
    21:00 +18°C° 1.2 mm 3 mps 697 mmHg 90%
    22:00 +18°C° 0.3 mm 3 mps 697 mmHg 90%
    23:00 +18°C° 0.3 mm 3 mps 697 mmHg 90%
    Show more